Regional Weather Roundup
Issued by NWS

Home | Current Version | Previous Version | Text Only | Print | Product List | Glossary On
Versions: 1 2 3 4 5 6 7 8 9 10 11 12 13 14 15 16 17 18 19 20 21 22 23 24 25 26 27 28 29 30 31 32 33 34 35 36 37 38 39 40 41 42 43 44 45 46 47 48 49 50
000
ASUS46 KLOX 221812
RWRCA

SOUTHERN CALIFORNIA WEATHER ROUNDUP
NATIONAL WEATHER SERVICE OXNARD CALIFORNIA
1000 AM PST MON DEC 22 2014

NOTE: "FAIR" INDICATES FEW OR NO CLOUDS BELOW 12,000 FEET WITH NO
SIGNIFICANT WEATHER AND/OR OBSTRUCTIONS TO VISIBILITY.

  -  STATIONS PRECEEDED BY AN ASTERISK (*) ARE NOT NWS OR FAA
     STATIONS AND ARE NOT SUBJECT TO NWS AND FAA QUALITY CONTROL.

CAZ041-042-087-221900-
LA AND ORANGE COUNTY COASTAL AREAS


CITY           SKY/WX    TMP DP  RH WIND       PRES   REMARKS
L.A. DOWNTOWN  SUNNY     65  51  60 CALM      30.05S
L.A. AIRPORT   MOSUNNY   62  51  67 SE3       30.06S
LONG BEACH     SUNNY     63  53  70 CALM      30.06S HAZE

CITY           SKY/WX    TMP DP  RH WIND       PRES   REMARKS
AVALON           N/A     64 N/A N/A MISG        N/A
FULLERTON      SUNNY     64  51  62 CALM      30.05S
*GETTY CENTER    N/A     64  50  59 S3          N/A
HAWTHORNE      SUNNY     63  51  65 CALM      30.06S
*REDONDO BEACH   N/A     61  59  92 CALM      30.04F
SANTA ANA      MOSUNNY   65  54  67 CALM      30.06R HAZE
STA MONICA APT SUNNY     65  49  56 CALM      30.06S
TORRANCE       SUNNY     66  57  72 CALM      30.07S HAZE
*UCLA            N/A     68  48  49 E2        30.03S

$$

CAZ547-548-048-221900-
LA COUNTY VALLEYS AND INLAND EMPIRE


CITY           SKY/WX    TMP DP  RH WIND       PRES   REMARKS
BURBANK        SUNNY     66  47  50 CALM      30.06R
VAN NUYS       SUNNY     67  48  50 SE8       30.06R

CITY           SKY/WX    TMP DP  RH WIND       PRES   REMARKS
CORONA AIRPORT CLEAR     59  55  86 CALM      30.07S
*CHATSWORTH      N/A     74  44  33 CALM      30.02F
CHINO          SUNNY     59  50  72 NW3       30.07F HAZE
*NORTHRIDGE      N/A     72  39  30 N3G12       N/A
ONTARIO        SUNNY     61  48  62 SW5       30.06S
*PASADENA        N/A     70  50  49 CALM        N/A
POMONA         SUNNY     63  48  59 CALM      30.09
RIVERSIDE      SUNNY     62  48  60 CALM      30.06S
SAN BERNARDINO SUNNY     61  45  55 CALM      30.07S
*SAN GABRIEL     N/A     65  47  51 CALM      30.04F
*WHITEMAN AP   NOT AVBL
*WOODLAND HILL   N/A     73  41  31 NE3         N/A

$$

CAZ054-055-221900-
LA AND SAN BERNARDINO COUNTY MOUNTAINS


CITY           SKY/WX    TMP DP  RH WIND       PRES   REMARKS
*BIG BEAR AIRP CLEAR     57  10  15 N5G16     30.30S
MT WILSON NWS    N/A     70  19  14 MISG        N/A
SANDBERG       SUNNY     60  32  34 N14G33    30.22F

$$

CAZ028-029-059-060-099-221900-
ANTELOPE VALLEY AND SURROUNDING AREAS


CITY           SKY/WX    TMP DP  RH WIND       PRES   REMARKS
LANCASTER      SUNNY     60  47  61 W13       30.17F
PALMDALE       SUNNY     58  46  64 NW8       30.18F

CITY           SKY/WX    TMP DP  RH WIND       PRES   REMARKS
29 PALMS       SUNNY     63  42  46 NW16      30.17F
BARSTOW/DAGGET SUNNY     57  45  64 W14       30.16R
BISHOP         SUNNY     64  25  22 NW10      30.21S
CHINA LAKE     SUNNY     45  41  86 NW5       30.16S
MOJAVE         FAIR      54  46  76 NE6       30.17S
NEEDLES        SUNNY     61  41  47 NE5       30.06S
VICTORVILLE    SUNNY     54  45  71 W3        30.18S

$$

CAZ039-040-221900-
VENTURA AND SANTA BARBARA COUNTY COAST


CITY           SKY/WX    TMP DP  RH WIND       PRES   REMARKS
CAMARILLO      SUNNY     68  50  52 CALM      30.05S
NWS OXNARD       N/A     67  51  54 CALM      30.04F
OXNARD AIRPORT SUNNY     68  49  50 CALM      30.05S
*POINT MUGU    SUNNY     65  51  60 NW3       30.06S
SBA APT/GOLETA SUNNY     70  56  61 NW3       30.06R
*SANTA BARBARA   N/A     72  54  53 NW1       30.13S
*VENTURA         N/A     67  49  53 NE7       30.11S

$$

CAZ044-045-221900-
VENTURA COUNTY VALLEYS


CITY           SKY/WX    TMP DP  RH WIND       PRES   REMARKS
*SIMI VALLEY     N/A     71  45  39 NE14      30.01F
*OJAI            N/A     69  54  60 CALM      30.02S
*FILLMORE        N/A     71  52  51 CALM      29.95F

$$

CAZ053-221900-
VENTURA COUNTY MOUNTAINS


CITY           SKY/WX    TMP DP  RH WIND       PRES   REMARKS
*LOCKWOOD VLY    N/A     55  32  41 MISG        N/A
*ROSE VALLEY     N/A     63  45  51 MISG        N/A

$$

CAZ034-035-036-221900-
CENTRAL COAST AND SANTA YNEZ VALLEY


CITY           SKY/WX    TMP DP  RH WIND       PRES   REMARKS
SAN LUIS OBISP SUNNY     67  52  58 NE12      30.20R
SANTA MARIA    SUNNY     70  51  51 N16G30    30.16R

CITY           SKY/WX    TMP DP  RH WIND       PRES   REMARKS
*CAL POLY SLO    N/A     66  55  68 W6G12       N/A
*LOMPOC        SUNNY     70  52  52 NW13G20   30.15R
*PISMO BEACH     N/A     69  54  58 NE12      30.19R
*SANTA YNEZ    FAIR      68  50  52 W3        30.10S

$$

CAZ037-038-051-221900-
SAN LUIS OBISPO COUNTY INTERIOR AND CUYAMA VALLEY


CITY           SKY/WX    TMP DP  RH WIND       PRES   REMARKS
*CUYAMA          N/A     57  52  84 CALM      30.22F
PASO ROBLES    FOG       54  53  97 NW9       30.26R VSB 1/4

$$

CAZ032-033-061-221900-
SOUTHERN DESERTS


CITY           SKY/WX    TMP DP  RH WIND       PRES   REMARKS
BLYTHE         SUNNY     57  46  66 E3        30.06S
IMPERIAL       SUNNY     60  47  61 CALM      30.03F
PALM SPRINGS   SUNNY     65  45  48 S3        30.05S
THERMAL        SUNNY     62  45  53 SE5       30.03R

$$

ELSEWHERE ACROSS THE WESTERN UNITED STATES AND MEXICO


CITY           SKY/WX    TMP DP  RH WIND       PRES   REMARKS
DENVER, CO     PTSUNNY   33  26  75 E6        29.70F WCI  28
GRAND CANYON,  SUNNY     48  34  58 N13G18    30.09S
HONOLULU, HI   LGT RAIN  72  66  83 N10       30.01R
KAHULUI, MAUI  PTSUNNY   70  64  83 SE3       30.01R
LAKE TAHOE, CA SUNNY     45  34  65 NE6       30.37R
LAS VEGAS, NV  SUNNY     57  41  55 SE6       30.04S
MAMMOTH LAKES, FAIR      57  23  26 NW5       30.35S
MEXICO CITY, M CLOUDY    64  32  29 SW5       30.23F
PHOENIX, AZ    SUNNY     58  42  55 E3        30.03F
PORTLAND, OR   FOG       49  49 100 CALM      30.39R VSB 1/2
RENO, NV       PTSUNNY   46  37  71 S5        30.35R
SALT LAKE CITY CLOUDY    41  38  89 NE8       29.97F
SAN DIEGO, CA  SUNNY     66  51  58 NW5       30.06S
SAN FRANCISCO, FOG       54  54 100 CALM      30.30R VSB 1/4
SAN JOSE, CA   PTSUNNY   59  55  87 NW8       30.29R
SEATTLE, WA    PTSUNNY   46  41  82 CALM      30.37R
TIJUANA, MEX   SUNNY     64  43  45 E3        30.07R

$$

STATION/POSITION TIME  TEMP    WIND        PRES    VSBY  WAVE
                       AIR SEA DIR/SP/G                  HT/PER
                 (UTC) (F)     (DEG/KT/KT) (MB)    (MI)  (FT/S)
POINT ARGUELLO B NOT AVBL
WEST SANTA BARBA 1800   65 62  330/ 19/ 25 1018.3R        12/14
POINT CONCEPTION NOT AVBL
EAST SANTA BARBA NOT AVBL
SANTA MONICA BAY 1800   63 63   CALM  /  2 1018.1R         5/15



USA.gov is the U.S. government's official web portal to all federal, state and local government web resources and services.